{"data":{"norad_id":47723,"epoch":"2026-05-25T03:31:11.440416Z","epoch_age_seconds":62077,"freshness":"FRESH","line1":"1 47723U 21017B   26145.14666019 -.00004333  00000+0 -12802-3 0  9995","line2":"2 47723  53.1592 131.0982 0001131  77.5881 282.5247 15.31680505290652","mean_motion":15.31680505,"eccentricity":0.0001131,"inclination_deg":53.1592,"raan_deg":131.0982,"arg_perigee_deg":77.5881,"mean_anomaly_deg":282.5247,"bstar":-0.00012802,"rev_number":29065,"period_min":94.014384546861,"perigee_km":470.02349486172,"apogee_km":471.57272398347,"semimajor_km":6848.9351094226,"source":"CELESTRAK","updated_at":"2026-05-25T13:38:16.564279Z"}}